Location: Dodgeville
(42.9600°N, 90.1300°W)
Time: 03:45:28
(UTC-05:00)

Uosat F - Visible Passes

Search period start: 16 April 2014 00:00
Search period end: 26 April 2014 00:00
Orbit: 751 x 763 km, 98.7° (Epoch: 14 April)

Date Brightness Start Highest point End Pass type
(mag) Time Alt. Az. Time Alt. Az. Time Alt. Az.
16 Apr 13.1 04:18:13 10° NE 04:22:20 25° E 04:26:25 10° SSE visible
17 Apr 14.0 03:42:01 10° ENE 03:42:50 10° E 03:43:40 10° E visible
17 Apr 11.1 05:17:17 10° NNE 05:22:19 89° WNW 05:27:19 10° SSW visible
18 Apr 12.4 04:38:29 10° NNE 04:43:11 39° E 04:47:49 10° SSE visible
19 Apr 13.6 04:00:35 10° NE 04:03:48 17° E 04:07:00 10° SE visible
19 Apr 11.2 05:38:04 10° N 05:42:59 58° WNW 05:47:52 10° SSW visible
20 Apr 11.6 04:58:59 10° NNE 05:03:57 61° ESE 05:08:53 10° S visible
21 Apr 13.0 04:20:31 10° NE 04:24:42 26° E 04:28:52 10° SSE visible
22 Apr 13.9 03:43:57 10° ENE 03:45:13 11° E 03:46:29 10° ESE visible
22 Apr 11.1 05:19:38 10° NNE 05:24:40 86° WNW 05:29:40 10° SSW visible
23 Apr 12.3 04:40:49 10° NNE 04:45:32 40° E 04:50:13 10° SSE visible
24 Apr 13.6 04:02:51 10° NE 04:06:10 18° E 04:09:29 10° SE visible
25 Apr 11.5 05:01:19 10° NNE 05:06:18 64° ESE 05:11:15 10° S visible
